Date_and_time,latitude,longitude,wind_speed,RelWindDirFrom,WindDirFrom,air_pressure,air_temperature,relative_humidity,Temp,platform_speed_wrt_ground,air_pressure_at_mean_sea_level,platform_orientation
2019-01-22 23:40,50.63045,-96.9807583333333,1.6,2.4,235,990.34,-10.6,65,0.57,0.0,1019.35,48.3
2019-01-22 23:50,50.630455,-96.980765,1.8,2.8,214,990.17,-10.7,65,0.59,0.0,1019.19,48.3
2019-01-23 00:00,50.630455,-96.9807666666667,0.1,0.9,236,990.03,-10.7,65,0.60,0.0,1019.05,167.4
2019-01-23 00:00,50.630455,-96.9807666666667,0.9,0.9,237,990.01,-10.6,65,0.60,0.0,1019.04,270.0
2019-01-23 00:10,50.6304516666667,-96.980765,1.5,2.2,246,990.02,-10.6,65,0.60,0.0,1019.04,270.0
2019-01-23 00:20,50.63045,-96.980765,3.3,4.2,205,989.95,-11.1,67,0.60,0.0,1019.00,270.0
2019-01-23 00:30,50.630455,-96.980785,3.0,4.6,231,989.92,-11.2,68,0.59,0.0,1018.99,270.0
2019-01-23 00:40,50.6304483333333,-96.9807716666667,3.2,3.9,247,989.87,-11.2,70,0.58,0.0,1018.95,270.0
2019-01-23 00:50,50.630445,-96.9807683333333,2.4,3.7,254,989.82,-11.2,71,0.58,0.0,1018.90,270.0
2019-01-23 01:00,50.630445,-96.9807666666667,1.7,2.4,272,989.72,-11.3,72,0.58,0.0,1018.81,360.0
2019-01-23 01:10,50.630445,-96.9807666666667,1.2,2.0,265,989.62,-11.4,72,0.58,0.0,1018.71,360.0
2019-01-23 01:20,50.6304533333333,-96.9807766666667,1.7,2.5,268,989.62,-11.4,73,0.57,0.0,1018.72,360.0
2019-01-23 01:30,50.63045,-96.980825,2.4,3.2,273,989.68,-11.4,72,0.56,0.0,1018.78,360.0
2019-01-23 01:40,50.6304466666667,-96.9807733333333,1.9,2.9,229,989.62,-11.6,73,0.56,0.0,1018.74,360.0
2019-01-23 01:50,50.6304483333333,-96.980765,2.1,2.7,227,989.63,-11.8,74,0.56,0.0,1018.76,360.0
2019-01-23 02:00,50.6304916666667,-96.9807916666667,1.8,2.7,258,989.55,-11.6,74,0.56,0.0,1018.66,335.6
2019-01-23 02:10,50.6304433333333,-96.9807666666667,1.1,1.8,262,989.48,-11.4,74,0.56,0.0,1018.59,335.6
2019-01-23 02:20,50.6304483333333,-96.98077,1.6,2.2,202,989.31,-11.5,74,0.55,0.0,1018.44,335.6
2019-01-23 02:30,50.6304466666667,-96.9807716666667,1.5,2.0,192,989.33,-11.8,80,0.55,0.0,1018.47,335.6
2019-01-23 02:40,50.6304466666667,-96.9807716666667,1.4,2.0,195,989.30,-11.8,81,0.55,0.0,1018.45,335.6
2019-01-23 02:50,50.6304466666667,-96.98077,1.9,2.7,204,989.30,-11.7,80,0.56,0.0,1018.45,335.6
2019-01-23 03:00,50.630445,-96.9807716666667,2.6,3.2,184,989.24,-11.6,80,0.56,0.0,1018.38,194.5
2019-01-23 03:10,50.6304466666667,-96.9807716666667,2.1,3.8,186,989.23,-11.7,80,0.57,0.0,1018.38,194.5
2019-01-23 03:20,50.6304466666667,-96.9807716666667,3.6,4.8,176,989.12,-11.8,81,0.57,0.0,1018.27,194.5
2019-01-23 03:30,50.6304466666667,-96.98077,4.3,5.0,186,989.06,-11.8,81,0.57,0.0,1018.22,194.5
2019-01-23 03:40,50.6304483333333,-96.98077,3.9,4.5,190,988.98,-11.7,82,0.57,0.0,1018.15,194.5
2019-01-23 03:50,50.6304483333333,-96.98077,3.6,4.4,186,988.88,-11.7,83,0.57,0.0,1018.03,194.5
2019-01-23 04:00,50.6304483333333,-96.98077,4.4,5.4,180,988.78,-11.7,83,0.57,0.0,1017.91,360.0
2019-01-23 04:10,50.630455,-96.980755,4.4,5.8,186,988.69,-11.7,83,0.57,0.0,1017.83,360.0
2019-01-23 04:20,50.630465,-96.9807816666667,4.2,5.5,189,988.71,-11.6,82,0.57,0.0,1017.86,360.0
2019-01-23 04:30,50.6304616666667,-96.9807733333333,5.3,6.7,182,988.66,-11.6,82,0.57,0.0,1017.81,360.0
2019-01-23 04:40,50.630445,-96.98076,5.3,6.6,178,988.59,-11.6,83,0.57,0.0,1017.73,360.0
2019-01-23 04:50,50.6304466666667,-96.9807616666667,6.7,8.2,177,988.38,-11.6,84,0.57,0.0,1017.52,360.0
2019-01-23 05:00,50.6304483333333,-96.98076,6.0,7.7,174,988.30,-11.6,85,0.57,0.0,1017.44,150.7
2019-01-23 05:10,50.6304483333333,-96.98076,5.8,7.1,171,988.22,-11.6,85,0.57,0.0,1017.36,150.7
2019-01-23 05:20,50.6304516666667,-96.9807616666667,6.6,7.8,170,988.03,-11.6,85,0.57,0.0,1017.16,150.7
2019-01-23 05:30,50.6304516666667,-96.9807616666667,6.3,8.5,172,987.99,-11.6,85,0.57,0.0,1017.11,150.7
2019-01-23 05:40,50.6304533333333,-96.9807616666667,4.4,5.6,175,988.05,-11.5,85,0.57,0.0,1017.17,150.7
2019-01-23 05:50,50.6304783333333,-96.9807866666667,5.4,6.7,172,988.02,-11.4,85,0.57,0.0,1017.13,150.7
2019-01-23 06:00,50.6304666666667,-96.980785,5.8,7.9,167,987.87,-11.4,85,0.56,0.0,1016.98,360.0
2019-01-23 06:10,50.630465,-96.9807683333333,7.9,10.4,163,987.56,-11.4,84,0.55,0.0,1016.65,360.0
2019-01-23 06:20,50.630465,-96.9807633333333,8.7,10.5,160,987.28,-11.4,84,0.55,0.0,1016.36,360.0
2019-01-23 06:30,50.6304666666667,-96.98076,9.3,11.4,157,987.12,-11.4,85,0.55,0.0,1016.21,360.0
2019-01-23 06:40,50.6304666666667,-96.9807583333333,10.0,12.3,154,986.83,-11.4,85,0.55,0.0,1015.90,360.0
2019-01-23 06:50,50.630465,-96.9807583333333,9.4,11.6,152,986.79,-11.4,85,0.55,0.0,1015.86,360.0
2019-01-23 07:00,50.6304666666667,-96.9807516666667,8.9,11.7,154,986.83,-11.3,86,0.55,0.0,1015.89,14.5
2019-01-23 07:10,50.63047,-96.9807633333333,11.1,13.3,162,986.81,-11.3,86,0.55,0.0,1015.88,14.5
2019-01-23 07:20,50.630465,-96.9807616666667,9.7,12.3,167,986.85,-11.3,86,0.54,0.0,1015.91,14.5
2019-01-23 07:30,50.6304866666667,-96.9807983333333,9.9,12.1,158,986.59,-11.3,86,0.54,0.0,1015.65,14.5
2019-01-23 07:40,50.6304716666667,-96.9807716666667,11.1,13.0,158,986.33,-11.2,86,0.53,0.0,1015.37,14.5
2019-01-23 07:50,50.6304583333333,-96.98076,12.4,14.5,162,986.12,-11.2,86,0.54,0.0,1015.15,14.5
2019-01-23 08:00,50.6304633333333,-96.980745,12.4,14.9,163,986.02,-11.1,87,0.54,0.0,1015.04,3.2
2019-01-23 08:10,50.6304533333333,-96.980765,11.5,14.4,165,985.96,-11.1,88,0.53,0.0,1014.98,3.2
2019-01-23 08:20,50.6304583333333,-96.980775,9.8,12.3,170,985.95,-11.1,87,0.53,0.0,1014.97,3.2
2019-01-23 08:30,50.6304566666667,-96.98077,10.5,14.5,172,985.85,-11.0,85,0.54,0.0,1014.86,3.2
2019-01-23 08:40,50.6304683333333,-96.9807716666667,10.4,12.7,174,985.76,-11.0,84,0.54,0.0,1014.76,3.2
2019-01-23 08:50,50.6304566666667,-96.9807583333333,9.2,11.5,171,985.68,-11.0,84,0.53,0.0,1014.69,3.2
2019-01-23 09:00,50.6304566666667,-96.980765,8.3,10.1,170,985.64,-11.0,84,0.53,0.0,1014.64,148.9
2019-01-23 09:10,50.630455,-96.980765,9.0,11.1,169,985.43,-11.0,83,0.52,0.0,1014.43,148.9
2019-01-23 09:20,50.6304566666667,-96.9807666666667,9.8,11.5,162,985.31,-11.1,84,0.53,0.0,1014.30,148.9
2019-01-23 09:30,50.6304566666667,-96.9807666666667,9.0,11.2,164,985.25,-11.1,84,0.52,0.0,1014.24,148.9
2019-01-23 09:40,50.630455,-96.9807633333333,9.7,11.6,160,985.02,-11.1,85,0.53,0.0,1014.00,148.9
2019-01-23 09:50,50.6304616666667,-96.9807666666667,10.8,12.9,161,984.84,-11.2,85,0.53,0.0,1013.82,148.9
2019-01-23 10:00,50.630455,-96.9807633333333,9.8,11.8,162,984.70,-11.2,86,0.53,0.0,1013.67,183.2
2019-01-23 10:10,50.6304583333333,-96.9807616666667,9.7,11.8,159,984.47,-11.2,86,0.54,0.0,1013.44,183.2
2019-01-23 10:20,50.6304616666667,-96.9807883333333,9.8,12.3,158,984.27,-11.2,86,0.55,0.0,1013.22,183.2
2019-01-23 10:30,50.630465,-96.9807616666667,9.7,11.6,157,984.14,-11.2,85,0.56,0.0,1013.09,183.2
2019-01-23 10:40,50.6304633333333,-96.9807616666667,9.3,11.4,159,984.00,-11.2,85,0.56,0.0,1012.94,183.2
2019-01-23 10:50,50.6304633333333,-96.9807633333333,9.5,12.0,160,983.85,-11.1,85,0.57,0.0,1012.79,183.2
2019-01-23 11:00,50.6304633333333,-96.980765,11.1,13.1,163,983.68,-11.1,82,0.57,0.0,1012.61,270.0
2019-01-23 11:10,50.6305016666667,-96.9807883333333,9.6,12.1,157,983.53,-11.1,83,0.57,0.0,1012.46,270.0
2019-01-23 11:20,50.63043,-96.9807583333333,9.0,11.5,160,983.42,-11.1,83,0.56,0.0,1012.35,270.0
2019-01-23 11:30,50.6304533333333,-96.98077,8.2,10.9,160,983.42,-11.1,83,0.56,0.0,1012.35,270.0
2019-01-23 11:40,50.6304516666667,-96.9807716666667,7.3,9.4,160,983.36,-11.1,84,0.56,0.0,1012.29,270.0
2019-01-23 11:50,50.6304433333333,-96.9807733333333,7.3,9.1,155,983.32,-11.1,84,0.56,0.0,1012.25,270.0
2019-01-23 12:00,50.6304466666667,-96.9807766666667,7.2,9.8,152,983.24,-11.0,85,0.56,0.0,1012.17,228.3
2019-01-23 12:10,50.6304516666667,-96.980775,8.3,12.6,152,983.18,-11.0,86,0.54,0.0,1012.11,228.3
2019-01-23 12:20,50.6304516666667,-96.980775,9.6,12.1,156,983.06,-11.1,85,0.53,0.0,1011.98,228.3
2019-01-23 12:30,50.63043,-96.98079,9.0,11.5,153,982.83,-11.1,86,0.53,0.0,1011.75,228.3
2019-01-23 12:40,50.6304466666667,-96.9807583333333,9.4,12.2,158,982.69,-11.1,85,0.53,0.0,1011.60,228.3
2019-01-23 12:50,50.6304666666667,-96.9807566666667,11.2,13.4,161,982.60,-11.1,84,0.53,0.0,1011.50,228.3
2019-01-23 13:00,50.6304516666667,-96.9807666666667,9.8,12.0,161,982.53,-11.2,84,0.53,0.0,1011.43,90.0
2019-01-23 13:10,50.6304416666667,-96.980785,9.7,11.9,160,982.41,-11.2,84,0.54,0.0,1011.31,90.0
2019-01-23 13:20,50.63042,-96.98073,9.9,12.3,156,982.13,-11.2,85,0.53,0.0,1011.02,90.0
2019-01-23 13:30,50.6304333333333,-96.9807666666667,10.7,13.3,149,981.75,-11.2,86,0.53,0.0,1010.64,90.0
2019-01-23 13:40,50.63044,-96.9807716666667,11.5,14.4,150,981.56,-11.3,87,0.54,0.0,1010.44,90.0
2019-01-23 13:50,50.6304416666667,-96.9807733333333,11.7,14.5,156,981.41,-11.3,88,0.55,0.0,1010.28,90.0
2019-01-23 14:00,50.63044,-96.9807716666667,12.3,14.8,159,981.24,-11.3,88,0.55,0.0,1010.11,360.0
2019-01-23 14:10,50.630445,-96.9807733333333,12.4,14.4,161,981.33,-11.3,89,0.56,0.0,1010.21,360.0
2019-01-23 14:20,50.6304466666667,-96.9807716666667,11.8,14.4,165,981.46,-11.2,88,0.56,0.0,1010.34,360.0
2019-01-23 14:30,50.6304466666667,-96.98077,10.5,13.3,166,981.44,-11.1,88,0.56,0.0,1010.31,360.0
2019-01-23 14:40,50.6304316666667,-96.980765,9.5,11.5,166,981.46,-11.1,88,0.57,0.0,1010.33,360.0
2019-01-23 14:50,50.6304533333333,-96.9807683333333,9.5,11.7,164,981.38,-11.0,88,0.57,0.0,1010.25,360.0
2019-01-23 15:00,50.63045,-96.980775,9.1,11.1,163,981.28,-11.0,89,0.58,0.0,1010.14,360.0
2019-01-23 15:10,50.6304316666667,-96.980775,8.5,10.1,168,981.24,-10.9,89,0.59,0.0,1010.09,360.0
2019-01-23 15:20,50.6304433333333,-96.9807633333333,8.1,10.1,169,981.26,-10.9,90,0.60,0.0,1010.12,360.0
2019-01-23 15:30,50.630445,-96.9807683333333,8.5,10.6,165,981.26,-10.7,90,0.60,0.0,1010.11,360.0
2019-01-23 15:40,50.6304483333333,-96.9807716666667,9.3,11.6,167,981.27,-10.6,90,0.60,0.0,1010.12,360.0
2019-01-23 15:50,50.63045,-96.98077,8.9,11.0,171,981.26,-10.5,90,0.60,0.0,1010.10,360.0
2019-01-23 16:00,50.6304483333333,-96.9807683333333,8.8,10.5,167,981.13,-10.5,91,0.59,0.0,1009.96,360.0
2019-01-23 16:10,50.63045,-96.98077,8.6,10.5,164,981.00,-10.4,91,0.58,0.0,1009.82,360.0
2019-01-23 16:20,50.63045,-96.9807683333333,9.4,11.3,158,980.90,-10.4,92,0.58,0.0,1009.72,360.0
2019-01-23 16:30,50.6304183333333,-96.9807833333333,9.1,12.0,166,980.94,-10.3,92,0.57,0.0,1009.74,360.0
2019-01-23 16:40,50.63045,-96.9807583333333,10.7,12.4,163,980.80,-10.3,90,0.57,0.0,1009.60,360.0
2019-01-23 16:50,50.630445,-96.98077,10.8,12.3,165,980.76,-10.3,91,0.57,0.0,1009.57,360.0
2019-01-23 17:00,50.63043,-96.9807683333333,9.7,11.7,165,980.87,-10.3,92,0.57,0.0,1009.66,360.0
2019-01-23 17:10,50.630435,-96.9807683333333,10.3,12.1,162,980.83,-10.2,91,0.58,0.0,1009.62,360.0
2019-01-23 17:20,50.630435,-96.980765,11.1,13.3,162,980.64,-10.0,92,0.58,0.0,1009.41,360.0
2019-01-23 17:30,50.6304366666667,-96.980765,10.4,13.3,160,980.51,-9.9,93,0.57,0.0,1009.26,360.0
2019-01-23 17:40,50.6304366666667,-96.9807633333333,12.1,15.0,149,980.30,-10.1,97,0.57,0.0,1009.05,360.0
2019-01-23 17:50,50.6304366666667,-96.980765,11.3,13.8,156,980.11,-10.2,98,0.57,0.0,1008.86,360.0
2019-01-23 18:00,50.6304366666667,-96.9807666666667,9.9,12.6,173,980.20,-10.0,97,0.57,0.0,1008.94,360.0
2019-01-23 18:10,50.6304383333333,-96.9807666666667,7.8,10.1,181,980.18,-9.7,95,0.57,0.0,1008.89,360.0
2019-01-23 18:20,50.6304516666667,-96.9807766666667,7.5,9.3,190,980.13,-9.4,93,0.57,0.0,1008.82,360.0
2019-01-23 18:30,50.630445,-96.9807666666667,5.8,8.1,198,980.11,-9.3,93,0.57,0.0,1008.79,360.0
2019-01-23 18:40,50.6304433333333,-96.9807683333333,6.0,8.5,210,979.99,-9.3,93,0.56,0.0,1008.67,360.0
2019-01-23 18:50,50.6304433333333,-96.9807716666667,7.0,9.3,217,980.07,-9.4,93,0.56,0.0,1008.76,360.0
2019-01-23 19:00,50.6304416666667,-96.9807716666667,8.1,11.4,209,980.07,-9.4,92,0.56,0.0,1008.75,192.6
2019-01-23 19:10,50.6304416666667,-96.9807716666667,9.0,11.7,200,979.97,-9.5,91,0.57,0.0,1008.65,192.6
2019-01-23 19:20,50.6304416666667,-96.98077,7.5,10.6,192,979.80,-9.6,92,0.57,0.0,1008.47,192.6
2019-01-23 19:30,50.6304416666667,-96.98077,6.9,9.4,201,979.88,-9.6,92,0.57,0.0,1008.56,192.6
2019-01-23 19:40,50.6304416666667,-96.98077,7.0,9.0,208,979.88,-9.5,92,0.57,0.0,1008.56,192.6
2019-01-23 19:50,50.6304433333333,-96.9807716666667,6.8,9.4,198,979.77,-9.5,93,0.57,0.0,1008.44,192.6
2019-01-23 20:00,50.6304433333333,-96.9807716666667,7.0,9.1,203,979.78,-9.5,93,0.57,0.0,1008.43,336.5
2019-01-23 20:10,50.6304433333333,-96.9807733333333,6.6,8.3,200,979.83,-9.5,94,0.56,0.0,1008.47,336.5
2019-01-23 20:20,50.6304433333333,-96.9807733333333,6.4,8.1,210,979.91,-9.5,95,0.56,0.0,1008.55,336.5
2019-01-23 20:30,50.6304433333333,-96.9807733333333,5.3,7.0,215,979.92,-9.4,96,0.55,0.0,1008.55,336.5
2019-01-23 20:40,50.6304766666667,-96.980785,5.6,7.0,214,979.94,-9.4,97,0.56,0.0,1008.58,336.5
2019-01-23 20:50,50.6304516666667,-96.980775,5.1,7.0,226,980.12,-9.2,98,0.56,0.0,1008.76,336.5
2019-01-23 21:00,50.6304466666667,-96.980765,4.9,7.2,241,980.17,-9.0,99,0.55,0.0,1008.80,360.0
2019-01-23 21:10,50.6304466666667,-96.9807666666667,5.6,8.0,245,980.34,-8.8,99,0.55,0.0,1008.97,360.0
2019-01-23 21:20,50.630445,-96.9807633333333,4.2,6.7,268,980.39,-8.7,99,0.56,0.0,1009.01,360.0
2019-01-23 21:30,50.6304316666667,-96.98075,6.7,13.2,303,980.58,-8.3,99,0.56,0.0,1009.18,360.0
2019-01-23 21:40,50.6304433333333,-96.9807533333333,11.7,17.5,323,980.49,-8.1,90,0.56,0.0,1009.08,360.0
2019-01-23 21:50,50.630445,-96.9807583333333,12.0,17.7,322,980.61,-8.2,82,0.56,0.0,1009.21,360.0
2019-01-23 22:00,50.630455,-96.9807616666667,9.8,14.9,320,980.84,-8.4,85,0.56,0.0,1009.46,36.6
2019-01-23 22:10,50.63045,-96.98076,11.9,18.4,320,980.88,-8.5,89,0.56,0.0,1009.51,36.6
2019-01-23 22:20,50.6304483333333,-96.98076,12.1,18.6,328,981.21,-8.8,94,0.56,0.0,1009.86,36.6
2019-01-23 22:30,50.63045,-96.9807616666667,15.1,29.2,335,981.43,-9.3,97,0.56,0.0,1010.10,36.6
2019-01-23 22:40,50.6304483333333,-96.980755,17.7,25.4,345,981.64,-10.1,92,0.56,0.0,1010.35,36.6
2019-01-23 22:50,50.63045,-96.9807633333333,17.8,23.8,340,981.85,-10.7,90,0.56,0.0,1010.60,36.6
2019-01-23 23:00,50.63045,-96.9807633333333,17.6,25.0,336,982.20,-11.0,89,0.56,0.0,1010.96,360.0
2019-01-23 23:10,50.6304533333333,-96.98076,18.3,26.4,337,982.45,-11.3,88,0.56,0.0,1011.22,360.0
2019-01-23 23:20,50.63044,-96.9807633333333,17.7,26.2,332,982.71,-11.7,87,0.57,0.0,1011.50,360.0
2019-01-23 23:30,50.630445,-96.980765,19.0,27.3,332,982.92,-12.1,86,0.56,0.0,1011.71,360.0
2019-01-23 23:40,50.6304433333333,-96.980765,18.5,27.6,330,983.17,-12.2,84,0.57,0.0,1012.00,360.0
2019-01-23 23:50,50.6304433333333,-96.980765,18.6,25.1,331,983.44,-12.4,86,0.57,0.0,1012.29,360.0
